FDX60 ZSPD-RJAA

Flight info

Callsign FDX60
Flight time 2h 15m
Altitude 33000
Route LAM91D LAMEN/N0487F330 A593 SADLI Y590 BEDAR Y591 FUE Y23 KASTE Y81 RUTAS
Aircraft MD11/H-SDE1E2E3FGHIJ2J3J4J5M1RWXY/LB1D1

Departure

Time 2026-05-08 01:44
Airport Shanghai Pudong International Airport (ZSPD)

Arrival

Time 2026-05-08 03:59
Airport Narita International Airport (RJAA)
Time Latitude Longitude Altitude Speed Heading
2026-05-08 01:05 31.14277 121.78356 30 ft 0 kts 252°
2026-05-08 01:25 31.14277 121.78357 30 ft 1 kts 252°
2026-05-08 01:26 31.14281 121.78373 29 ft 3 kts 252°
2026-05-08 01:26 31.14288 121.78395 29 ft 3 kts 252°
2026-05-08 01:26 31.14294 121.78417 28 ft 2 kts 252°
2026-05-08 01:26 31.14298 121.78435 27 ft 3 kts 241°
2026-05-08 01:27 31.14307 121.78450 28 ft 3 kts 208°
2026-05-08 01:27 31.14320 121.78456 28 ft 3 kts 172°
2026-05-08 01:27 31.14339 121.78451 28 ft 3 kts 161°
2026-05-08 01:27 31.14349 121.78447 29 ft 0 kts 162°
2026-05-08 01:32 31.14341 121.78450 29 ft 3 kts 162°
2026-05-08 01:33 31.14295 121.78467 28 ft 11 kts 162°
2026-05-08 01:33 31.14242 121.78514 30 ft 8 kts 113°
2026-05-08 01:33 31.14238 121.78569 30 ft 6 kts 97°
2026-05-08 01:33 31.14222 121.78596 30 ft 4 kts 142°
2026-05-08 01:34 31.14159 121.78624 30 ft 14 kts 162°
2026-05-08 01:34 31.14053 121.78666 30 ft 19 kts 160°
2026-05-08 01:34 31.13910 121.78719 30 ft 24 kts 162°
2026-05-08 01:34 31.13730 121.78785 30 ft 30 kts 162°
2026-05-08 01:35 31.13531 121.78860 30 ft 29 kts 161°
2026-05-08 01:35 31.13347 121.78933 31 ft 27 kts 163°
2026-05-08 01:35 31.13179 121.78994 31 ft 24 kts 162°
2026-05-08 01:35 31.13026 121.79053 30 ft 22 kts 161°
2026-05-08 01:36 31.12887 121.79106 30 ft 20 kts 163°
2026-05-08 01:36 31.12762 121.79151 29 ft 18 kts 161°
2026-05-08 01:36 31.12653 121.79199 30 ft 15 kts 163°
2026-05-08 01:36 31.12560 121.79235 30 ft 11 kts 144°
2026-05-08 01:37 31.12553 121.79285 29 ft 7 kts 79°
2026-05-08 01:37 31.12562 121.79358 29 ft 12 kts 79°
2026-05-08 01:37 31.12594 121.79474 29 ft 17 kts 71°
2026-05-08 01:37 31.12627 121.79595 30 ft 14 kts 72°
2026-05-08 01:38 31.12657 121.79697 30 ft 12 kts 71°
2026-05-08 01:38 31.12680 121.79780 31 ft 10 kts 72°
2026-05-08 01:38 31.12697 121.79847 31 ft 8 kts 72°
2026-05-08 01:38 31.12716 121.79877 30 ft 1 kts 44°
2026-05-08 01:39 31.12722 121.79883 30 ft 1 kts 38°
2026-05-08 01:39 31.12726 121.79885 30 ft 3 kts 32°
2026-05-08 01:39 31.12731 121.79887 20 ft 1 kts 16°
2026-05-08 01:39 31.12771 121.79877 30 ft 15 kts 349°
2026-05-08 01:40 31.12853 121.79867 30 ft 0 kts
2026-05-08 01:40 31.12854 121.79867 30 ft 0 kts
2026-05-08 01:40 31.12889 121.79862 30 ft 7 kts
2026-05-08 01:40 31.12910 121.79881 30 ft 7 kts 43°
2026-05-08 01:41 31.12933 121.79942 30 ft 12 kts 74°
2026-05-08 01:41 31.12911 121.80031 30 ft 11 kts 150°
2026-05-08 01:41 31.12848 121.80054 30 ft 8 kts 163°
2026-05-08 01:41 31.12799 121.80072 30 ft 6 kts 164°
2026-05-08 01:42 31.12770 121.80066 30 ft 4 kts 206°
2026-05-08 01:42 31.12752 121.80032 30 ft 7 kts 246°
2026-05-08 01:42 31.12731 121.79965 30 ft 11 kts 249°
2026-05-08 01:42 31.12734 121.79898 18 ft 7 kts 300°
2026-05-08 01:43 31.12769 121.79866 29 ft 8 kts 336°
2026-05-08 01:43 31.12998 121.79779 29 ft 75 kts 342°
2026-05-08 01:43 31.13757 121.79495 30 ft 151 kts 342°
2026-05-08 01:43 31.14887 121.79059 361 ft 180 kts 343°
2026-05-08 01:44 31.16096 121.78596 1319 ft 181 kts 345°
2026-05-08 01:44 31.17240 121.78140 2615 ft 170 kts 343°
2026-05-08 01:44 31.18398 121.77659 3388 ft 192 kts 345°
2026-05-08 01:44 31.19811 121.77134 3559 ft 232 kts 346°
2026-05-08 01:45 31.21431 121.76529 3929 ft 250 kts 344°
2026-05-08 01:45 31.23092 121.75900 4929 ft 251 kts 345°
2026-05-08 01:45 31.24765 121.75265 5947 ft 255 kts 344°
2026-05-08 01:45 31.26485 121.74608 6914 ft 261 kts 343°
2026-05-08 01:46 31.28219 121.73944 7844 ft 263 kts 342°
2026-05-08 01:46 31.29950 121.73284 8715 ft 268 kts 342°
2026-05-08 01:46 31.31799 121.72914 9510 ft 273 kts
2026-05-08 01:46 31.33648 121.73511 10246 ft 287 kts 25°
2026-05-08 01:47 31.35294 121.75048 10374 ft 322 kts 49°
2026-05-08 01:47 31.36423 121.77460 10553 ft 357 kts 70°
2026-05-08 01:47 31.36951 121.80377 11125 ft 371 kts 78°
2026-05-08 01:48 31.37927 121.85316 12324 ft 379 kts 67°
2026-05-08 01:48 31.39339 121.89097 13277 ft 385 kts 60°
2026-05-08 01:48 31.40602 121.91882 13984 ft 391 kts 57°
2026-05-08 01:48 31.41960 121.94674 14459 ft 398 kts 56°
2026-05-08 01:49 31.43369 121.97483 14816 ft 401 kts 56°
2026-05-08 01:49 31.44794 122.00306 15171 ft 405 kts 56°
2026-05-08 01:49 31.45753 122.02245 15414 ft 408 kts 57°
2026-05-08 01:49 31.47148 122.05108 15768 ft 412 kts 57°
2026-05-08 01:50 31.48571 122.08054 15890 ft 416 kts 57°
2026-05-08 01:50 31.49872 122.10760 15914 ft 417 kts 57°
2026-05-08 01:50 31.51293 122.13720 15919 ft 417 kts 57°
2026-05-08 01:50 31.52715 122.16682 15914 ft 417 kts 58°
2026-05-08 01:51 31.54137 122.19645 15909 ft 417 kts 57°
2026-05-08 01:51 31.55560 122.22611 15915 ft 417 kts 58°
2026-05-08 01:51 31.56983 122.25576 15917 ft 417 kts 58°
2026-05-08 01:51 31.58404 122.28540 15912 ft 417 kts 58°
2026-05-08 01:52 31.59823 122.31503 15914 ft 416 kts 58°
2026-05-08 01:52 31.61246 122.34474 15915 ft 416 kts 58°
2026-05-08 01:52 31.62496 122.37541 15913 ft 419 kts 68°
2026-05-08 01:52 31.63250 122.40846 15914 ft 421 kts 77°
2026-05-08 01:53 31.63743 122.44241 15913 ft 422 kts 80°
2026-05-08 01:53 31.64137 122.47612 15912 ft 422 kts 81°
2026-05-08 01:53 31.64522 122.51023 15910 ft 421 kts 80°
2026-05-08 01:53 31.64921 122.54436 15909 ft 421 kts 80°
2026-05-08 01:54 31.65337 122.57839 15910 ft 421 kts 80°
2026-05-08 01:54 31.65767 122.61233 15909 ft 421 kts 79°
2026-05-08 01:54 31.66206 122.64641 15909 ft 421 kts 79°
2026-05-08 01:54 31.66652 122.68054 16505 ft 423 kts 79°
2026-05-08 01:55 31.67102 122.71483 17084 ft 429 kts 79°
2026-05-08 01:55 31.67561 122.74973 17637 ft 434 kts 79°
2026-05-08 01:55 31.68030 122.78515 18191 ft 440 kts 79°
2026-05-08 01:55 31.68507 122.82087 18680 ft 446 kts 79°
2026-05-08 01:56 31.68991 122.85702 19132 ft 451 kts 79°
2026-05-08 01:56 31.69482 122.89364 19578 ft 456 kts 80°
2026-05-08 01:56 31.69970 122.93008 20009 ft 460 kts 80°
2026-05-08 01:56 31.70469 122.96739 20440 ft 465 kts 80°
2026-05-08 01:57 31.70971 123.00508 20870 ft 469 kts 80°
2026-05-08 01:57 31.71477 123.04321 21312 ft 474 kts 80°
2026-05-08 01:57 31.71987 123.08163 21758 ft 478 kts 80°
2026-05-08 01:57 31.72500 123.12042 22199 ft 483 kts 81°
2026-05-08 01:58 31.73016 123.15957 22652 ft 487 kts 81°
2026-05-08 01:58 31.73537 123.19911 23111 ft 492 kts 81°
2026-05-08 01:58 31.74062 123.23912 23582 ft 497 kts 81°
2026-05-08 01:58 31.74590 123.27943 23996 ft 501 kts 81°
2026-05-08 01:59 31.75121 123.32015 24434 ft 505 kts 81°
2026-05-08 01:59 31.75655 123.36107 24867 ft 508 kts 81°
2026-05-08 01:59 31.76190 123.40230 25293 ft 512 kts 81°
2026-05-08 01:59 31.76714 123.44387 25726 ft 516 kts 83°
2026-05-08 02:00 31.76940 123.48606 26146 ft 519 kts 93°
2026-05-08 02:00 31.76469 123.52810 26572 ft 518 kts 107°
2026-05-08 02:00 31.75423 123.56812 26979 ft 519 kts 114°
2026-05-08 02:00 31.74086 123.60757 27405 ft 521 kts 117°
2026-05-08 02:01 31.72666 123.64686 27837 ft 524 kts 117°
2026-05-08 02:01 31.71254 123.68651 28258 ft 528 kts 116°
2026-05-08 02:01 31.69880 123.72669 28669 ft 532 kts 115°
2026-05-08 02:01 31.68538 123.76745 29095 ft 536 kts 115°
2026-05-08 02:02 31.67223 123.80840 29520 ft 539 kts 114°
2026-05-08 02:02 31.65910 123.84974 29936 ft 542 kts 114°
2026-05-08 02:02 31.64591 123.89142 30313 ft 545 kts 114°
2026-05-08 02:02 31.63273 123.93317 30700 ft 546 kts 113°
2026-05-08 02:03 31.62162 123.97585 31117 ft 549 kts 105°
2026-05-08 02:03 31.61601 124.02027 31548 ft 551 kts 94°
2026-05-08 02:03 31.61664 124.06528 31930 ft 552 kts 84°
2026-05-08 02:03 31.62352 124.10951 32295 ft 551 kts 73°
2026-05-08 02:04 31.63519 124.15160 32664 ft 549 kts 68°
2026-05-08 02:04 31.64847 124.19360 33019 ft 550 kts 68°
2026-05-08 02:04 31.66127 124.23610 33130 ft 551 kts 70°
2026-05-08 02:04 31.67284 124.27907 33166 ft 553 kts 72°
2026-05-08 02:05 31.69321 124.36660 33185 ft 556 kts 74°
2026-05-08 02:05 31.71212 124.45480 33177 ft 557 kts 74°
2026-05-08 02:06 31.73107 124.54311 33176 ft 558 kts 74°
2026-05-08 02:06 31.75027 124.63162 33177 ft 558 kts 74°
2026-05-08 02:07 31.76938 124.71965 33171 ft 559 kts 74°
2026-05-08 02:07 31.78851 124.80815 33169 ft 560 kts 74°
2026-05-08 02:08 31.80764 124.89700 33165 ft 560 kts 74°
2026-05-08 02:08 31.82550 124.98625 33162 ft 561 kts 80°
2026-05-08 02:09 31.82603 125.07774 33159 ft 560 kts 101°
2026-05-08 02:09 31.80843 125.16614 33156 ft 558 kts 108°
2026-05-08 02:10 31.78944 125.25479 33153 ft 559 kts 105°
2026-05-08 02:10 31.77365 125.34426 33149 ft 559 kts 103°
2026-05-08 02:11 31.75922 125.43403 33149 ft 559 kts 102°
2026-05-08 02:11 31.74477 125.52372 33147 ft 558 kts 103°
2026-05-08 02:12 31.73008 125.61325 33148 ft 558 kts 103°
2026-05-08 02:12 31.72436 125.70399 33145 ft 559 kts 85°
2026-05-08 02:13 31.73033 125.74920 33145 ft 557 kts 74°
2026-05-08 02:13 31.74122 125.79280 33145 ft 556 kts 69°
2026-05-08 02:13 31.76631 125.87880 33142 ft 557 kts 70°
2026-05-08 02:14 31.78832 125.96616 33144 ft 559 kts 73°
2026-05-08 02:14 31.80779 126.05464 33135 ft 559 kts 74°
2026-05-08 02:15 31.82677 126.14337 33133 ft 560 kts 74°
2026-05-08 02:15 31.84591 126.23210 33127 ft 560 kts 74°
2026-05-08 02:16 31.86503 126.32026 33129 ft 560 kts 74°
2026-05-08 02:16 31.88424 126.40906 33124 ft 560 kts 74°
2026-05-08 02:17 31.90341 126.49796 33118 ft 560 kts 74°
2026-05-08 02:17 31.92278 126.58684 33118 ft 560 kts 73°
2026-05-08 02:18 31.94227 126.67556 33115 ft 560 kts 73°
2026-05-08 02:18 31.96174 126.76433 33115 ft 560 kts 74°
2026-05-08 02:19 31.98115 126.85321 33115 ft 561 kts 74°
2026-05-08 02:19 32.00041 126.94177 33113 ft 561 kts 74°
2026-05-08 02:20 32.01973 127.03097 33110 ft 562 kts 74°
2026-05-08 02:20 32.04012 127.11986 33107 ft 561 kts 69°
2026-05-08 02:21 32.06934 127.20519 33111 ft 559 kts 62°
2026-05-08 02:21 32.10194 127.28827 33103 ft 559 kts 62°
2026-05-08 02:22 32.13418 127.37183 33103 ft 560 kts 63°
2026-05-08 02:22 32.16568 127.45589 33103 ft 560 kts 63°
2026-05-08 02:23 32.19682 127.53973 33103 ft 561 kts 63°
2026-05-08 02:23 32.22830 127.62411 33102 ft 562 kts 63°
2026-05-08 02:24 32.25991 127.70859 33098 ft 563 kts 63°
2026-05-08 02:24 32.29132 127.79320 33097 ft 563 kts 63°
2026-05-08 02:25 32.32268 127.87816 33091 ft 563 kts 63°
2026-05-08 02:25 32.35399 127.96323 33075 ft 564 kts 63°
2026-05-08 02:26 32.38525 128.04834 33077 ft 564 kts 63°
2026-05-08 02:26 32.41647 128.13354 33091 ft 564 kts 63°
2026-05-08 02:27 32.44744 128.21828 33080 ft 565 kts 63°
2026-05-08 02:27 32.47844 128.30384 33078 ft 566 kts 64°
2026-05-08 02:28 32.50940 128.38957 33076 ft 566 kts 63°
2026-05-08 02:28 32.54044 128.47533 33064 ft 566 kts 63°
2026-05-08 02:29 32.57150 128.56115 33045 ft 567 kts 63°
2026-05-08 02:29 32.60254 128.64714 33034 ft 567 kts 64°
2026-05-08 02:30 32.63336 128.73277 33021 ft 567 kts 64°
2026-05-08 02:30 32.66422 128.81876 33023 ft 566 kts 64°
2026-05-08 02:31 32.68906 128.90791 33022 ft 571 kts 74°
2026-05-08 02:31 32.70710 128.99985 33029 ft 571 kts 76°
2026-05-08 02:32 32.72451 129.09199 33035 ft 572 kts 76°
2026-05-08 02:32 32.74272 129.18390 33039 ft 572 kts 75°
2026-05-08 02:33 32.76118 129.27524 33030 ft 572 kts 75°
2026-05-08 02:33 32.77972 129.36724 33033 ft 572 kts 75°
2026-05-08 02:34 32.79812 129.45927 33019 ft 572 kts 76°
2026-05-08 02:34 32.81643 129.55132 33011 ft 572 kts 76°
2026-05-08 02:35 32.83163 129.62803 33005 ft 573 kts 76°
2026-05-08 02:35 32.84966 129.72041 32992 ft 573 kts 77°
2026-05-08 02:36 32.86435 129.81363 33001 ft 573 kts 80°
2026-05-08 02:36 32.87734 129.90722 32992 ft 573 kts 81°
2026-05-08 02:37 32.89035 130.00018 32992 ft 573 kts 80°
2026-05-08 02:37 32.90373 130.09391 32992 ft 574 kts 80°
2026-05-08 02:38 32.91714 130.18766 32992 ft 574 kts 80°
2026-05-08 02:38 32.93046 130.28147 32974 ft 574 kts 81°
2026-05-08 02:39 32.94367 130.37518 32977 ft 574 kts 81°
2026-05-08 02:39 32.95683 130.46904 32970 ft 574 kts 81°
2026-05-08 02:40 32.96983 130.56229 32968 ft 574 kts 81°
2026-05-08 02:40 32.98284 130.65617 32972 ft 574 kts 81°
2026-05-08 02:41 32.99559 130.74989 32965 ft 573 kts 82°
2026-05-08 02:41 33.00820 130.84366 32963 ft 573 kts 82°
2026-05-08 02:42 33.02090 130.93740 32967 ft 572 kts 82°
2026-05-08 02:42 33.03360 131.03106 32963 ft 572 kts 82°
2026-05-08 02:43 33.04614 131.12411 32960 ft 571 kts 82°
2026-05-08 02:43 33.05864 131.21740 32959 ft 570 kts 82°
2026-05-08 02:44 33.07106 131.31080 32952 ft 569 kts 82°
2026-05-08 02:44 33.08335 131.40402 32943 ft 569 kts 82°
2026-05-08 02:45 33.09547 131.49737 32947 ft 570 kts 82°
2026-05-08 02:45 33.10768 131.59096 32928 ft 572 kts 82°
2026-05-08 02:46 33.11987 131.68422 32932 ft 572 kts 82°
2026-05-08 02:46 33.13207 131.77816 32925 ft 572 kts 82°
2026-05-08 02:47 33.14418 131.87204 32928 ft 574 kts 82°
2026-05-08 02:47 33.15625 131.96622 32927 ft 574 kts 82°
2026-05-08 02:48 33.16825 132.06046 32927 ft 573 kts 82°
2026-05-08 02:48 33.18002 132.15404 32933 ft 573 kts 83°
2026-05-08 02:49 33.19166 132.24817 32930 ft 573 kts 83°
2026-05-08 02:49 33.20337 132.34235 32935 ft 572 kts 83°
2026-05-08 02:50 33.21507 132.43645 32934 ft 572 kts 83°
2026-05-08 02:50 33.22671 132.53062 32931 ft 572 kts 83°
2026-05-08 02:51 33.23821 132.62464 32921 ft 571 kts 83°
2026-05-08 02:51 33.24952 132.71837 32927 ft 570 kts 83°
2026-05-08 02:52 33.26081 132.81189 32921 ft 568 kts 83°
2026-05-08 02:52 33.27199 132.90486 32921 ft 569 kts 83°
2026-05-08 02:53 33.28326 132.99905 32911 ft 569 kts 83°
2026-05-08 02:53 33.29426 133.09207 32906 ft 567 kts 83°
2026-05-08 02:54 33.30517 133.18550 32900 ft 568 kts 83°
2026-05-08 02:54 33.31612 133.27940 32895 ft 569 kts 83°
2026-05-08 02:55 33.33246 133.41993 32878 ft 569 kts 83°
2026-05-08 02:56 33.34326 133.51368 32873 ft 569 kts 83°
2026-05-08 02:56 33.35401 133.60758 32858 ft 569 kts 83°
2026-05-08 02:57 33.36467 133.70138 32864 ft 568 kts 83°
2026-05-08 02:57 33.37517 133.79443 32863 ft 568 kts 83°
2026-05-08 02:58 33.38567 133.88807 32868 ft 568 kts 83°
2026-05-08 02:58 33.39610 133.98178 32871 ft 568 kts 83°
2026-05-08 02:59 33.40635 134.07556 32860 ft 568 kts 84°
2026-05-08 02:59 33.41638 134.16947 32873 ft 567 kts 84°
2026-05-08 03:00 33.42651 134.26335 32871 ft 568 kts 84°
2026-05-08 03:00 33.43666 134.35708 32862 ft 568 kts 84°
2026-05-08 03:01 33.44668 134.45023 32865 ft 568 kts 84°
2026-05-08 03:01 33.45667 134.54424 32866 ft 568 kts 84°
2026-05-08 03:02 33.46650 134.63831 32862 ft 569 kts 84°
2026-05-08 03:02 33.47602 134.73182 32864 ft 569 kts 85°
2026-05-08 03:03 33.48567 134.82620 32866 ft 569 kts 84°
2026-05-08 03:03 33.49539 134.92037 32864 ft 569 kts 84°
2026-05-08 03:04 33.50501 135.01460 32864 ft 569 kts 84°
2026-05-08 03:04 33.51444 135.10816 32863 ft 569 kts 84°
2026-05-08 03:05 33.52393 135.20235 32862 ft 569 kts 84°
2026-05-08 03:05 33.53337 135.29651 32857 ft 569 kts 84°
2026-05-08 03:06 33.54275 135.39070 32857 ft 568 kts 84°
2026-05-08 03:06 33.55204 135.48479 32866 ft 568 kts 85°
2026-05-08 03:07 33.56125 135.57877 32858 ft 567 kts 84°
2026-05-08 03:07 33.57037 135.67262 32862 ft 568 kts 84°
2026-05-08 03:08 33.57938 135.76608 32854 ft 566 kts 84°
2026-05-08 03:08 33.58834 135.85983 32851 ft 565 kts 84°
2026-05-08 03:09 33.59721 135.95350 32847 ft 565 kts 85°
2026-05-08 03:09 33.60576 136.04740 32847 ft 564 kts 85°
2026-05-08 03:10 33.61427 136.14039 32845 ft 564 kts 85°
2026-05-08 03:10 33.62290 136.23397 32843 ft 563 kts 84°
2026-05-08 03:11 33.63149 136.32736 32839 ft 563 kts 84°
2026-05-08 03:11 33.63998 136.42060 32844 ft 562 kts 84°
2026-05-08 03:12 33.64840 136.51392 32836 ft 562 kts 84°
2026-05-08 03:12 33.65673 136.60717 32848 ft 561 kts 84°
2026-05-08 03:13 33.66499 136.70035 32850 ft 561 kts 84°
2026-05-08 03:13 33.67312 136.79276 32845 ft 560 kts 85°
2026-05-08 03:14 33.68119 136.88582 32841 ft 560 kts 84°
2026-05-08 03:14 33.68913 136.97885 32843 ft 559 kts 85°
2026-05-08 03:15 33.69683 137.07182 32851 ft 558 kts 85°
2026-05-08 03:15 33.70340 137.16401 32842 ft 557 kts 88°
2026-05-08 03:16 33.70655 137.25690 32846 ft 555 kts 90°
2026-05-08 03:16 33.70884 137.34956 32847 ft 554 kts 90°
2026-05-08 03:17 33.71135 137.44206 32850 ft 553 kts 90°
2026-05-08 03:17 33.71399 137.53427 32851 ft 552 kts 90°
2026-05-08 03:18 33.71661 137.62635 32848 ft 551 kts 90°
2026-05-08 03:18 33.71912 137.71769 32850 ft 550 kts 90°
2026-05-08 03:19 33.72156 137.80954 32850 ft 550 kts 90°
2026-05-08 03:19 33.72393 137.90140 32855 ft 549 kts 91°
2026-05-08 03:20 33.72622 137.99304 32858 ft 548 kts 88°
2026-05-08 03:20 33.72862 138.08451 32854 ft 547 kts 91°
2026-05-08 03:21 33.73050 138.17532 32856 ft 546 kts 91°
2026-05-08 03:21 33.73227 138.26640 32857 ft 545 kts 91°
2026-05-08 03:22 33.73420 138.35739 32855 ft 543 kts 91°
2026-05-08 03:22 33.73616 138.44808 32856 ft 542 kts 91°
2026-05-08 03:23 33.73799 138.53870 32854 ft 542 kts 91°
2026-05-08 03:23 33.73971 138.62912 32854 ft 541 kts 91°
2026-05-08 03:24 33.74140 138.71902 32853 ft 540 kts 91°
2026-05-08 03:24 33.74281 138.79462 32855 ft 540 kts 91°
2026-05-08 03:25 33.74793 138.89925 32853 ft 542 kts 81°
2026-05-08 03:25 33.75770 138.94308 32853 ft 544 kts 70°
2026-05-08 03:25 33.76761 138.97145 32854 ft 545 kts 63°
2026-05-08 03:26 33.80849 139.04717 32855 ft 545 kts 52°
2026-05-08 03:26 33.85248 139.12158 32856 ft 546 kts 56°
2026-05-08 03:27 33.89282 139.19921 32860 ft 547 kts 59°
2026-05-08 03:27 33.93150 139.27808 32859 ft 547 kts 59°
2026-05-08 03:28 33.97010 139.35711 32861 ft 547 kts 59°
2026-05-08 03:28 34.00889 139.43611 32857 ft 547 kts 59°
2026-05-08 03:29 34.04766 139.51499 32859 ft 547 kts 59°
2026-05-08 03:29 34.09040 139.59076 32859 ft 546 kts 51°
2026-05-08 03:30 34.16204 139.69738 32856 ft 546 kts 50°
2026-05-08 03:31 34.25745 139.84036 32851 ft 547 kts 51°
2026-05-08 03:32 34.32807 139.94815 32846 ft 547 kts 51°
2026-05-08 03:32 34.37527 140.02042 32843 ft 547 kts 51°
2026-05-08 03:33 34.42249 140.09277 32834 ft 548 kts 51°
2026-05-08 03:33 34.46925 140.16582 32835 ft 548 kts 54°
2026-05-08 03:34 34.51094 140.24317 32834 ft 548 kts 58°
2026-05-08 03:34 34.55044 140.32225 32834 ft 548 kts 59°
2026-05-08 03:35 34.59005 140.40074 32835 ft 548 kts 58°
2026-05-08 03:35 34.62998 140.47945 32835 ft 548 kts 58°
2026-05-08 03:36 34.67185 140.56125 32835 ft 548 kts 56°
2026-05-08 03:36 34.72065 140.63161 32835 ft 544 kts 38°
2026-05-08 03:36 34.75089 140.65883 32842 ft 537 kts 26°
2026-05-08 03:37 34.78410 140.67950 32833 ft 533 kts 17°
2026-05-08 03:37 34.81919 140.69304 32833 ft 526 kts
2026-05-08 03:37 34.85508 140.69955 32829 ft 517 kts 358°
2026-05-08 03:37 34.89051 140.70214 32706 ft 508 kts 356°
2026-05-08 03:38 34.92583 140.70387 32239 ft 506 kts 356°
2026-05-08 03:38 34.96102 140.70592 31640 ft 508 kts 357°
2026-05-08 03:38 34.99637 140.70893 30934 ft 510 kts 358°
2026-05-08 03:38 35.03181 140.71277 30262 ft 513 kts 359°
2026-05-08 03:39 35.06736 140.71888 29538 ft 521 kts
2026-05-08 03:39 35.10229 140.73220 28800 ft 532 kts 19°
2026-05-08 03:39 35.13515 140.75359 28061 ft 539 kts 30°
2026-05-08 03:39 35.16573 140.78034 27296 ft 543 kts 35°
2026-05-08 03:40 35.19514 140.80859 26545 ft 545 kts 36°
2026-05-08 03:40 35.22508 140.83717 25787 ft 547 kts 34°
2026-05-08 03:40 35.25551 140.86503 25024 ft 545 kts 33°
2026-05-08 03:40 35.28619 140.89195 24267 ft 540 kts 32°
2026-05-08 03:41 35.31690 140.91813 23529 ft 534 kts 31°
2026-05-08 03:41 35.34737 140.94369 22696 ft 528 kts 31°
2026-05-08 03:41 35.37753 140.96889 21906 ft 522 kts 31°
2026-05-08 03:41 35.40738 140.99386 21157 ft 516 kts 31°
2026-05-08 03:42 35.43687 141.01861 20437 ft 511 kts 31°
2026-05-08 03:42 35.46628 141.04281 19727 ft 504 kts 28°
2026-05-08 03:42 35.49731 141.06173 18989 ft 492 kts 14°
2026-05-08 03:42 35.53007 141.07072 18288 ft 475 kts 359°
2026-05-08 03:43 35.56245 141.06977 17560 ft 459 kts 345°
2026-05-08 03:43 35.59349 141.06231 16861 ft 450 kts 339°
2026-05-08 03:43 35.62329 141.05327 16212 ft 445 kts 339°
2026-05-08 03:43 35.65326 141.04452 15832 ft 443 kts 340°
2026-05-08 03:44 35.68344 141.03664 15470 ft 441 kts 342°
2026-05-08 03:44 35.71354 141.02961 15110 ft 439 kts 343°
2026-05-08 03:44 35.74283 141.02053 14859 ft 428 kts 333°
2026-05-08 03:44 35.76887 141.00410 14346 ft 415 kts 316°
2026-05-08 03:45 35.78866 140.97976 13565 ft 393 kts 299°
2026-05-08 03:45 35.80259 140.95136 12740 ft 383 kts 291°
2026-05-08 03:45 35.81436 140.92218 11939 ft 378 kts 290°
2026-05-08 03:45 35.82585 140.89325 11253 ft 373 kts 290°
2026-05-08 03:46 35.83747 140.86522 10902 ft 368 kts 291°
2026-05-08 03:46 35.84922 140.83817 10670 ft 349 kts 292°
2026-05-08 03:46 35.86068 140.81264 10498 ft 331 kts 292°
2026-05-08 03:46 35.87169 140.78849 10351 ft 315 kts 292°
2026-05-08 03:47 35.88226 140.76549 10216 ft 300 kts 292°
2026-05-08 03:47 35.89238 140.74351 9977 ft 290 kts 292°
2026-05-08 03:47 35.90227 140.72197 9617 ft 285 kts 292°
2026-05-08 03:47 35.91205 140.70058 9040 ft 287 kts 292°
2026-05-08 03:48 35.92188 140.67910 8516 ft 287 kts 293°
2026-05-08 03:48 35.93170 140.65765 8017 ft 287 kts 293°
2026-05-08 03:48 35.94152 140.63623 7530 ft 287 kts 293°
2026-05-08 03:48 35.95133 140.61487 7099 ft 285 kts 294°
2026-05-08 03:49 35.96107 140.59363 6659 ft 284 kts 294°
2026-05-08 03:49 35.97065 140.57275 6232 ft 283 kts 294°
2026-05-08 03:49 35.98017 140.55123 5773 ft 279 kts 289°
2026-05-08 03:49 35.98657 140.52888 5333 ft 274 kts 282°
2026-05-08 03:50 35.99148 140.50634 4970 ft 270 kts 280°
2026-05-08 03:50 35.99601 140.48412 4774 ft 263 kts 279°
2026-05-08 03:50 36.00040 140.46239 4624 ft 261 kts 279°
2026-05-08 03:50 36.00475 140.44069 4252 ft 266 kts 280°
2026-05-08 03:51 36.00924 140.41837 3917 ft 271 kts 279°
2026-05-08 03:51 36.01387 140.39528 3595 ft 283 kts 279°
2026-05-08 03:51 36.01859 140.37159 3300 ft 281 kts 281°
2026-05-08 03:51 36.02329 140.34848 3166 ft 273 kts 281°
2026-05-08 03:52 36.02787 140.32606 3050 ft 265 kts 280°
2026-05-08 03:52 36.03229 140.30441 3016 ft 254 kts 281°
2026-05-08 03:52 36.03487 140.28364 2987 ft 235 kts 269°
2026-05-08 03:52 36.03460 140.26411 2984 ft 221 kts 255°
2026-05-08 03:53 36.02721 140.24858 2996 ft 207 kts 216°
2026-05-08 03:53 36.01459 140.24308 3007 ft 186 kts 186°
2026-05-08 03:53 36.00170 140.24276 3019 ft 186 kts 174°
2026-05-08 03:53 35.98963 140.24832 3018 ft 186 kts 156°
2026-05-08 03:54 35.97800 140.25551 3033 ft 188 kts 157°
2026-05-08 03:54 35.96636 140.26272 3010 ft 187 kts 156°
2026-05-08 03:54 35.95491 140.27012 3013 ft 186 kts 155°
2026-05-08 03:54 35.94357 140.27783 3023 ft 186 kts 154°
2026-05-08 03:55 35.93264 140.28588 2968 ft 178 kts 153°
2026-05-08 03:55 35.92212 140.29362 2703 ft 172 kts 154°
2026-05-08 03:55 35.91187 140.30111 2544 ft 171 kts 154°
2026-05-08 03:55 35.90166 140.30854 2298 ft 168 kts 155°
2026-05-08 03:56 35.89158 140.31585 2094 ft 171 kts 155°
2026-05-08 03:56 35.88139 140.32324 1852 ft 162 kts 154°
2026-05-08 03:56 35.87188 140.33011 1658 ft 159 kts 155°
2026-05-08 03:56 35.86226 140.33702 1453 ft 161 kts 156°
2026-05-08 03:57 35.85256 140.34401 1257 ft 161 kts 156°
2026-05-08 03:57 35.84299 140.35089 1027 ft 158 kts 154°
2026-05-08 03:57 35.83551 140.35627 883 ft 159 kts 153°
2026-05-08 03:57 35.82584 140.36332 683 ft 165 kts 156°
2026-05-08 03:58 35.81609 140.37042 466 ft 159 kts 158°
2026-05-08 03:58 35.80973 140.37500 313 ft 155 kts 155°
2026-05-08 03:58 35.80037 140.38168 157 ft 149 kts 153°
2026-05-08 03:58 35.79302 140.38687 153 ft 95 kts 149°
2026-05-08 03:59 35.78893 140.38985 150 ft 51 kts 150°
2026-05-08 03:59 35.78661 140.39080 149 ft 23 kts 177°
2026-05-08 03:59 35.78515 140.39102 151 ft 19 kts 168°
2026-05-08 03:59 35.78397 140.39131 151 ft 16 kts 168°
2026-05-08 04:00 35.78296 140.39159 151 ft 14 kts 167°
2026-05-08 04:00 35.78215 140.39187 151 ft 11 kts 164°
2026-05-08 04:00 35.78153 140.39188 151 ft 8 kts 194°
2026-05-08 04:00 35.78143 140.39184 151 ft 3 kts 202°
2026-05-08 04:01 35.78119 140.39145 151 ft 6 kts 239°
2026-05-08 04:01 35.78105 140.39124 151 ft 3 kts 223°
2026-05-08 04:01 35.78079 140.39106 151 ft 4 kts 199°
2026-05-08 04:01 35.78068 140.39103 151 ft 0 kts 194°
2026-05-08 04:02 35.78056 140.39110 151 ft 4 kts 160°
2026-05-08 04:02 35.78006 140.39153 151 ft 14 kts 145°
2026-05-08 04:02 35.77945 140.39250 151 ft 13 kts 117°
2026-05-08 04:02 35.77910 140.39334 151 ft 9 kts 117°
2026-05-08 04:03 35.77886 140.39394 151 ft 7 kts 115°
2026-05-08 04:03 35.77825 140.39502 151 ft 7 kts 137°
2026-05-08 04:03 35.77799 140.39519 151 ft 6 kts 153°
2026-05-08 04:04 35.77742 140.39558 151 ft 13 kts 150°
2026-05-08 04:04 35.77653 140.39622 151 ft 17 kts 149°
2026-05-08 04:04 35.77541 140.39705 151 ft 20 kts 149°
2026-05-08 04:04 35.77411 140.39798 151 ft 23 kts 150°
2026-05-08 04:05 35.77272 140.39896 151 ft 23 kts 150°
2026-05-08 04:05 35.77131 140.39993 151 ft 22 kts 161°
2026-05-08 04:05 35.77002 140.39958 151 ft 17 kts 203°
2026-05-08 04:05 35.76907 140.39905 151 ft 13 kts 203°
2026-05-08 04:06 35.76862 140.39844 151 ft 8 kts 244°
2026-05-08 04:06 35.76839 140.39802 151 ft 4 kts 223°
2026-05-08 04:06 35.76812 140.39782 151 ft 5 kts 209°
2026-05-08 04:06 35.76777 140.39756 151 ft 7 kts 212°
2026-05-08 04:07 35.76728 140.39708 151 ft 11 kts 224°
2026-05-08 04:07 35.76653 140.39644 151 ft 15 kts 206°
2026-05-08 04:07 35.76554 140.39590 151 ft 17 kts 203°
2026-05-08 04:07 35.76441 140.39528 151 ft 19 kts 207°
2026-05-08 04:08 35.76330 140.39467 151 ft 17 kts 205°
2026-05-08 04:08 35.76228 140.39410 151 ft 16 kts 205°
2026-05-08 04:08 35.76131 140.39355 151 ft 15 kts 204°
2026-05-08 04:08 35.76037 140.39307 151 ft 14 kts 201°
2026-05-08 04:09 35.75956 140.39259 151 ft 14 kts 202°
2026-05-08 04:09 35.75855 140.39198 151 ft 18 kts 216°
2026-05-08 04:09 35.75777 140.39066 151 ft 20 kts 240°
2026-05-08 04:09 35.75735 140.38982 152 ft 8 kts 239°
2026-05-08 04:10 35.75713 140.38937 152 ft 5 kts 239°
2026-05-08 04:10 35.75688 140.38886 152 ft 10 kts 239°
2026-05-08 04:10 35.75656 140.38821 152 ft 7 kts 239°
2026-05-08 04:10 35.75636 140.38779 152 ft 4 kts 239°
2026-05-08 04:11 35.75626 140.38760 152 ft 1 kts 239°
2026-05-08 04:11 35.75621 140.38750 152 ft 3 kts 240°
2026-05-08 04:11 35.75606 140.38702 152 ft 9 kts 254°
2026-05-08 04:11 35.75599 140.38610 152 ft 11 kts 275°
2026-05-08 04:12 35.75626 140.38530 152 ft 10 kts 317°
2026-05-08 04:12 35.75692 140.38478 152 ft 13 kts 331°
2026-05-08 04:12 35.75782 140.38416 152 ft 16 kts 327°
2026-05-08 04:12 35.75884 140.38337 152 ft 18 kts 330°
2026-05-08 04:13 35.75993 140.38259 152 ft 19 kts 329°
2026-05-08 04:13 35.76108 140.38176 151 ft 20 kts 330°
2026-05-08 04:13 35.76229 140.38089 151 ft 21 kts 329°
2026-05-08 04:13 35.76352 140.38000 151 ft 19 kts 329°
2026-05-08 04:14 35.76459 140.37923 151 ft 16 kts 329°
2026-05-08 04:14 35.76544 140.37861 151 ft 12 kts 330°
2026-05-08 04:14 35.76609 140.37817 151 ft 9 kts 330°
2026-05-08 04:14 35.76655 140.37782 151 ft 8 kts 327°
2026-05-08 04:15 35.76705 140.37745 151 ft 9 kts 329°
2026-05-08 04:15 35.76764 140.37702 151 ft 11 kts 329°
2026-05-08 04:15 35.76831 140.37653 151 ft 12 kts 329°
2026-05-08 04:15 35.76909 140.37597 151 ft 14 kts 329°
2026-05-08 04:16 35.76997 140.37533 151 ft 15 kts 329°
2026-05-08 04:16 35.77075 140.37486 151 ft 7 kts 349°
2026-05-08 04:16 35.77099 140.37497 151 ft 3 kts 33°
2026-05-08 04:16 35.77111 140.37520 151 ft 5 kts 62°
2026-05-08 04:17 35.77131 140.37567 151 ft 8 kts 60°
2026-05-08 04:17 35.77158 140.37633 151 ft 8 kts 74°
2026-05-08 04:17 35.77150 140.37672 151 ft 3 kts 119°
2026-05-08 04:17 35.77125 140.37697 151 ft 6 kts 149°
2026-05-08 04:18 35.77101 140.37725 151 ft 1 kts 110°
2026-05-08 04:18 35.77105 140.37746 151 ft 4 kts 71°
2026-05-08 04:18 35.77123 140.37790 151 ft 6 kts 60°
2026-05-08 04:18 35.77137 140.37821 151 ft 3 kts 59°
2026-05-08 04:19 35.77142 140.37831 151 ft 1 kts 60°
2026-05-08 04:19 35.77143 140.37833 151 ft 0 kts 60°